This is the latest recevied weather packets stored in our database for station/object K4GSL. If no packets are shown the sender has not sent any weather packets the latest 10 day(s).
| Time | Temp. | Humidity | Pressure | Rain* | Wind** | Luminosity | Snow |
|---|---|---|---|---|---|---|---|
| 1778001460 | 15° C | 84% | 1020.4 hPa | 0 mm | - | 241 W/m² | - |
| 1778001158 | 14.44° C | 84% | 1020.3 hPa | 0 mm | - | 201 W/m² | - |
| 1778000854 | 14.44° C | 84% | 1020.2 hPa | 0 mm | - | 222 W/m² | - |
| 1778000551 | 13.89° C | 86% | 1020.4 hPa | 0 mm | - | 190 W/m² | - |
| 1778000247 | 13.89° C | 87% | 1020.4 hPa | 0 mm | - | 171 W/m² | - |
| 1777999943 | 13.89° C | 88% | 1020.4 hPa | 0 mm | - | 189 W/m² | - |
| 1777999638 | 13.33° C | 88% | 1020.1 hPa | 0 mm | - | 150 W/m² | - |
| 1777999336 | 13.33° C | 89% | 1020.4 hPa | 0 mm | - | 115 W/m² | - |
| 1777999034 | 13.33° C | 90% | 1020.5 hPa | 0 mm | - | 93 W/m² | - |
| 1777998732 | 12.78° C | 90% | 1020.5 hPa | 0 mm | - | 94 W/m² | - |
| 1777998429 | 12.78° C | 91% | 1020.5 hPa | 0 mm | - | 95 W/m² | - |
| 1777998126 | 12.78° C | 91% | 1020.5 hPa | 0 mm | - | 84 W/m² | - |
| 1777997823 | 12.78° C | 92% | 1020.4 hPa | 0 mm | - | 74 W/m² | - |
| 1777997521 | 12.22° C | 92% | 1020.5 hPa | 0 mm | - | 66 W/m² | - |
| 1777997218 | 12.22° C | 92% | 1020.5 hPa | 0 mm | - | 58 W/m² | - |
| 1777996915 | 12.22° C | 91% | 1020.6 hPa | 0 mm | - | 59 W/m² | - |
| 1777996611 | 12.78° C | 91% | 1020.6 hPa | 0 mm | - | 65 W/m² | - |
| 1777996308 | 12.78° C | 92% | 1020.4 hPa | 0 mm | - | 72 W/m² | - |
| 1777996004 | 12.22° C | 92% | 1020.3 hPa | 0 mm | - | 72 W/m² | - |
| 1777995700 | 12.22° C | 93% | 1020.2 hPa | 0 mm | - | 59 W/m² | - |
| 1777995398 | 12.22° C | 93% | 1020.4 hPa | 0 mm | - | 54 W/m² | - |
| 1777995095 | 12.22° C | 93% | 1020.3 hPa | 0 mm | - | 54 W/m² | - |
| 1777994791 | 12.22° C | 93% | 1020.3 hPa | 0 mm | - | 55 W/m² | - |
| 1777994487 | 12.22° C | 94% | 1020.2 hPa | 0 mm | - | 56 W/m² | - |
| 1777994183 | 12.22° C | 94% | 1020.2 hPa | 0 mm | - | 53 W/m² | - |
* Rain latest hour (hover to see other rain measurements)
** Current wind speed in m/s (hover to see current wind gust speed)